Location: Spruce Knob
(38.6995°N, 79.5330°W)
Time: 20:48:03
(UTC-05:00)

Vanguard 1 Rocket - All Passes

Search period start: 27 January 2022 00:00
Search period end: 06 February 2022 00:00
Orbit: 651 x 4225 km, 34.3° (Epoch: 27 January)

Date Brightness Start Highest point End Pass type
(mag) Time Alt. Az. Time Alt. Az. Time Alt. Az.
27 Jan - 07:36:36 10° SSE 07:48:47 16° SE 08:00:56 10° E daylight
27 Jan - 09:54:53 10° SSW 10:18:12 44° SE 10:37:19 10° E daylight
27 Jan - 12:23:50 10° WSW 12:49:24 70° SSE 13:05:07 10° E daylight
27 Jan - 14:57:54 10° W 15:19:31 74° S 15:30:31 10° ESE daylight
27 Jan - 17:32:25 10° W 17:46:12 42° SW 17:53:40 10° SSE daylight
28 Jan - 08:43:36 10° SSW 09:03:59 33° SE 09:23:03 10° E daylight
28 Jan - 11:09:13 10° SW 11:34:46 61° SSE 11:53:01 10° E daylight
28 Jan - 13:41:33 10° WSW 14:06:00 77° S 14:19:26 10° E daylight
28 Jan - 16:16:24 10° W 16:34:34 59° SSW 16:43:46 10° SE daylight
28 Jan - 18:51:23 10° W 18:58:59 19° SW 19:04:15 10° S visible
29 Jan - 07:34:39 10° S 07:50:19 21° SE 08:06:23 10° E daylight
29 Jan - 09:55:55 10° SW 10:20:01 51° SSE 10:40:10 10° E daylight
29 Jan - 12:25:43 10° WSW 12:51:41 74° S 13:07:52 10° E daylight
29 Jan - 15:00:04 10° W 15:21:58 71° SSW 15:33:14 10° ESE daylight
29 Jan - 17:34:53 10° W 17:48:19 36° SW 17:55:54 10° SSE daylight
30 Jan - 06:33:16 10° SE 06:37:18 11° ESE 06:41:25 10° ESE visible
30 Jan - 08:44:08 10° SSW 09:05:35 39° SE 09:26:13 10° E daylight
30 Jan - 11:10:52 10° SW 11:36:51 67° SSE 11:55:44 10° E daylight
30 Jan - 13:43:40 10° W 14:08:25 77° S 14:22:11 10° E daylight
30 Jan - 16:18:38 10° W 16:36:49 53° SSW 16:46:17 10° SE daylight
30 Jan - 18:55:12 10° W 19:00:49 14° SW 19:05:08 10° SSW visible
31 Jan - 07:34:09 10° S 07:51:46 27° SE 08:10:28 10° E daylight
31 Jan - 09:57:17 10° SW 10:21:51 58° SSE 10:42:53 10° E daylight
31 Jan - 12:27:45 10° WSW 12:54:00 77° S 13:10:35 10° E daylight
31 Jan - 15:02:14 10° W 15:24:20 67° SSW 15:35:55 10° ESE daylight
31 Jan - 17:37:30 10° W 17:50:15 29° SW 17:57:53 10° SSE daylight
01 Feb - 06:27:29 10° SSE 06:38:42 16° SE 06:50:58 10° E visible
01 Feb - 08:45:06 10° SSW 09:07:09 46° SE 09:29:05 10° E daylight
01 Feb - 11:12:45 10° WSW 11:38:58 72° SSE 11:58:23 10° E daylight
01 Feb - 13:45:51 10° W 14:10:48 76° S 14:24:54 10° ESE daylight
01 Feb - 16:20:54 10° W 16:38:55 47° SW 16:48:38 10° SE daylight
01 Feb - 19:02:15 10° WSW 19:02:32 10° WSW 19:02:49 10° WSW visible
02 Feb - 07:34:28 10° S 07:53:10 34° SE 08:13:52 10° E daylight
02 Feb - 09:58:56 10° SW 10:23:43 64° SSE 10:45:31 10° E daylight
02 Feb - 12:29:53 10° W 12:56:19 78° S 13:13:17 10° E daylight
02 Feb - 15:04:24 10° W 15:26:35 62° SSW 15:38:28 10° SE daylight
02 Feb - 17:40:24 10° W 17:52:02 24° SW 17:59:31 10° S daylight
03 Feb - 06:26:04 10° SSE 06:40:01 21° SE 06:56:09 10° E visible
03 Feb - 08:46:27 10° SW 09:08:46 52° SSE 09:31:46 10° E daylight
03 Feb - 11:14:48 10° WSW 11:41:07 76° S 12:01:02 10° E daylight
03 Feb - 13:48:02 10° W 14:13:07 73° SSW 14:27:33 10° ESE daylight
03 Feb - 16:23:15 10° W 16:40:51 40° SW 16:50:48 10° SSE daylight
04 Feb - 07:35:21 10° SSW 07:54:34 40° SE 08:16:51 10° E daylight
04 Feb - 10:00:49 10° WSW 10:25:39 69° SSE 10:48:05 10° E daylight
04 Feb - 12:32:06 10° W 12:58:37 78° S 13:15:57 10° ESE daylight
04 Feb - 15:06:35 10° W 15:28:40 56° SSW 15:40:53 10° SE daylight
04 Feb - 17:43:46 10° W 17:53:41 19° SW 18:00:38 10° SSW daylight
05 Feb - 06:25:57 10° S 06:41:18 27° SE 07:00:05 10° E visible
05 Feb - 08:48:05 10° SW 09:10:27 59° SSE 09:34:19 10° E daylight
05 Feb - 11:16:58 10° WSW 11:43:18 78° S 12:03:39 10° E daylight
05 Feb - 13:50:13 10° W 14:15:19 69° SSW 14:30:06 10° ESE daylight
05 Feb - 16:25:44 10° W 16:42:37 34° SW 16:52:42 10° SSE daylight
